Content
SEND FEEDBACK

Daily
Averages
Monthly
Summary
United States of America

WORTH, MISSOURI


Home > North America > United States > Missouri
Elevation: 1000 feet     Latitude: 40 28N     Longitude: 094 25W

WEATHER
 
SELECT A DAY
Number of Records: 171,267;   Date Range: 1/1/95 - 7/26/14
 
SHARE

PRINT THIS DATA

[ ← Previous Day ]
WEATHER ALMANAC - JANUARY 6, 2013
[ Next Day → ]
[ °C ]   °F
Weather ElementAverageHighLow
Temperature24.5 °F35.1 °F (2:53 pm)16 °F (5:53 am)
Dewpoint15.9 °F19 °F (4:53 pm)12 °F (7:53 am)
Humidity71 %88 % (5:53 am)50 % (2:53 pm)
Barometer30.28 in30.36 in (10:53 am)30.15 in (1:53 am)
Wind Speed9.8 mph18.4 mph (3:03 am)
Wind Gust31.1 mph (3:03 am)
Weather ElementAverage
Visibility10 mi
Wind DirectionWSW (260 °)

Weather ElementTotal
Precipitation---
Heating Degree Days39.5 (Base 65)
Averaged from 23 records on January 6, 2013
WEATHER CONDITIONS BREAKOUT
WIND DIRECTION BREAKOUT
WEATHER BY HOUR - JANUARY 6, 2013
[ °C ]   °F
Local TimeTemperatureDewpointHumidityBarometerVisibilityWind DirectionWind SpeedGust SpeedPrecipitationEventsConditions
1:53 AM24.1 °F18.0 °F77 %30.15 in9.0 miWNW (300°)17.3 mph24.2 mphOvercast
3:03 AM19.4 °F15.8 °F86 %30.16 in10.0 miNW (320°)18.4 mph31.1 mphOvercast
4:05 AM19.4 °F12.2 °F74 %30.18 in10.0 miNW (320°)16.1 mph21.9 mphOvercast
4:33 AM17.6 °F12.2 °F79 %30.19 in10.0 miNW (310°)11.5 mphScattered Clouds
4:53 AM18.0 °F12.9 °F81 %30.24 in10.0 miNW (310°)11.5 mphClear
5:53 AM16.0 °F12.9 °F88 %30.26 in10.0 miWest (280°)6.9 mphClear
6:53 AM17.1 °F12.9 °F84 %30.28 in10.0 miWNW (290°)9.2 mphClear
7:53 AM16.0 °F12.0 °F84 %30.31 in10.0 miWNW (290°)6.9 mphClear
8:53 AM19.0 °F14.0 °F81 %30.33 in10.0 miWNW (300°)10.4 mphClear
9:53 AM21.9 °F12.9 °F68 %30.34 in10.0 miWNW (290°)10.4 mphClear
10:53 AM26.1 °F16.0 °F66 %30.36 in10.0 miNW (320°)10.4 mphClear
11:53 AM28.0 °F16.0 °F61 %30.34 in10.0 miWNW (290°)6.9 mphClear
12:53 PM30.9 °F18.0 °F59 %30.32 in10.0 miWNW (300°)8.1 mphClear
1:53 PM34.0 °F18.0 °F52 %30.31 in10.0 miWest (270°)6.9 mphClear
2:53 PM35.1 °F18.0 °F50 %30.32 in10.0 miWSW (250°)6.9 mphClear
3:53 PM35.1 °F18.0 °F50 %30.32 in10.0 miSSW (210°)6.9 mphClear
4:53 PM30.9 °F19.0 °F61 %30.32 in10.0 miSSW (210°)6.9 mphClear
5:53 PM28.9 °F19.0 °F67 %30.32 in10.0 miSSW (200°)6.9 mphClear
6:53 PM27.0 °F18.0 °F69 %30.32 in10.0 miSouth (190°)8.1 mphClear
7:53 PM25.0 °F18.0 °F75 %30.33 in10.0 miSSW (200°)8.1 mphClear
9:53 PM24.1 °F17.1 °F75 %30.29 in10.0 miSouth (170°)6.9 mphClear
10:53 PM24.1 °F17.1 °F75 %30.27 in10.0 miSouth (180°)10.4 mphClear
11:53 PM25.0 °F17.1 °F72 %30.25 in10.0 miSouth (180°)12.7 mphClear
Hourly data recorded from KLWD, located miles away from Worth, Missouri







STORIES FROM OUR PARTNERS